Time,TemperatureF,DewpointF,PressureIn,WindDirection,WindDirectionDegrees,WindSpeedMPH,WindSpeedGustMPH,Humidity,HourlyPrecipIn,Conditions,Clouds,dailyrainin,SoftwareType,DateUTC
2013-10-05 00:03:00,50.0,42.1,30.21,ENE,70,2.8,2.8,74,0.00,,---,0.00,VWS V14.01,2013-10-05 05:03:00,
2013-10-05 00:08:00,50.0,42.5,30.21,ENE,77,4.5,4.5,75,0.00,,---,0.00,VWS V14.01,2013-10-05 05:08:00,
2013-10-05 00:13:00,50.0,42.5,30.18,SSW,210,3.4,3.4,75,0.00,,---,0.00,VWS V14.01,2013-10-05 05:13:00,
2013-10-05 00:18:00,50.0,42.5,30.18,SE,132,7.8,7.8,75,0.00,,---,0.00,VWS V14.01,2013-10-05 05:18:00,
2013-10-05 00:23:00,50.0,42.9,30.18,WSW,253,0.0,0.0,77,0.00,,---,0.00,VWS V14.01,2013-10-05 05:23:00,
2013-10-05 00:28:00,50.0,42.9,30.18,North,9,7.8,7.8,77,0.00,,---,0.00,VWS V14.01,2013-10-05 05:28:00,
2013-10-05 00:33:00,50.0,42.9,30.18,SE,138,4.5,4.5,77,0.00,,---,0.00,VWS V14.01,2013-10-05 05:33:00,
2013-10-05 00:38:00,50.0,42.9,30.18,NNE,22,3.4,3.4,77,0.00,,---,0.00,VWS V14.01,2013-10-05 05:38:00,
2013-10-05 00:43:00,50.0,43.3,30.15,East,88,0.0,0.0,78,0.00,,---,0.00,VWS V14.01,2013-10-05 05:43:00,
2013-10-05 00:48:00,49.8,43.2,30.15,East,86,5.0,5.0,78,0.00,,---,0.00,VWS V14.01,2013-10-05 05:48:00,
2013-10-05 00:53:00,49.8,43.5,30.15,ESE,104,2.8,2.8,79,0.00,,---,0.00,VWS V14.01,2013-10-05 05:53:00,
2013-10-05 00:58:00,49.8,43.5,30.15,South,177,3.4,3.4,79,0.00,,---,0.00,VWS V14.01,2013-10-05 05:58:00,
2013-10-05 01:03:00,50.0,43.7,30.15,NNW,346,2.8,2.8,79,0.00,,---,0.00,VWS V14.01,2013-10-05 06:03:00,
2013-10-05 01:08:00,50.0,43.7,30.15,SSE,156,3.9,3.9,79,0.00,,---,0.00,VWS V14.01,2013-10-05 06:08:00,
2013-10-05 01:13:00,50.0,43.7,30.15,NNE,32,3.9,3.9,79,0.00,,---,0.00,VWS V14.01,2013-10-05 06:13:00,
2013-10-05 01:18:00,50.0,43.7,30.15,West,279,3.4,3.4,79,0.00,,---,0.00,VWS V14.01,2013-10-05 06:18:00,
2013-10-05 01:23:00,50.0,44.1,30.15,West,265,4.5,4.5,80,0.00,,---,0.00,VWS V14.01,2013-10-05 06:23:00,
2013-10-05 01:28:00,50.0,44.1,30.15,West,274,2.8,2.8,80,0.00,,---,0.00,VWS V14.01,2013-10-05 06:28:00,
2013-10-05 01:33:00,50.0,44.1,30.15,NE,37,3.9,3.9,80,0.00,,---,0.00,VWS V14.01,2013-10-05 06:33:00,
2013-10-05 01:38:00,50.0,44.1,30.15,North,2,3.4,3.4,80,0.00,,---,0.04,VWS V14.01,2013-10-05 06:38:00,
2013-10-05 01:43:00,50.0,44.1,30.15,South,183,0.0,0.0,80,0.00,,---,0.00,VWS V14.01,2013-10-05 06:43:00,
2013-10-05 01:48:00,50.2,44.3,30.15,SSW,194,3.4,3.4,80,0.00,,---,0.00,VWS V14.01,2013-10-05 06:48:00,
2013-10-05 01:53:00,50.2,44.3,30.15,WNW,287,3.4,3.4,80,0.00,,---,0.00,VWS V14.01,2013-10-05 06:53:00,
2013-10-05 01:58:00,50.2,44.3,30.15,NNE,31,2.8,2.8,80,0.00,,---,0.00,VWS V14.01,2013-10-05 06:58:00,
2013-10-05 02:04:00,50.2,44.3,30.15,SW,231,6.2,6.2,80,0.00,,---,0.00,VWS V14.01,2013-10-05 07:04:00,
2013-10-05 02:09:00,50.2,44.3,30.15,SSW,192,4.5,4.5,80,0.00,,---,0.00,VWS V14.01,2013-10-05 07:09:00,
2013-10-05 02:14:00,50.2,44.6,30.15,West,264,7.8,7.8,81,0.00,,---,0.00,VWS V14.01,2013-10-05 07:14:00,
2013-10-05 02:19:00,50.2,44.6,30.15,West,275,3.9,3.9,81,0.00,,---,0.00,VWS V14.01,2013-10-05 07:19:00,
2013-10-05 02:24:00,50.2,44.6,30.15,ENE,59,3.4,3.4,81,0.00,,---,0.00,VWS V14.01,2013-10-05 07:24:00,
2013-10-05 02:29:00,50.0,44.5,30.15,ENE,62,0.0,0.0,81,0.00,,---,0.00,VWS V14.01,2013-10-05 07:29:00,
2013-10-05 02:34:00,50.0,44.8,30.15,West,270,3.4,3.4,82,0.04,,---,0.04,VWS V14.01,2013-10-05 07:34:00,
2013-10-05 02:39:00,49.8,45.0,30.15,NE,56,0.0,0.0,83,0.04,,---,0.04,VWS V14.01,2013-10-05 07:39:00,
2013-10-05 02:44:00,49.8,45.0,30.15,WSW,238,6.7,6.7,83,0.04,,---,0.04,VWS V14.01,2013-10-05 07:44:00,
2013-10-05 02:49:00,49.6,45.2,30.15,WSW,256,3.4,3.4,85,0.04,,---,0.04,VWS V14.01,2013-10-05 07:49:00,
2013-10-05 02:54:00,49.6,45.5,30.15,West,271,3.4,3.4,86,0.08,,---,0.08,VWS V14.01,2013-10-05 07:54:00,
2013-10-05 02:59:00,49.6,45.9,30.15,WSW,239,2.8,2.8,87,0.12,,---,0.12,VWS V14.01,2013-10-05 07:59:00,
2013-10-05 03:04:00,49.6,46.2,30.15,ENE,76,3.9,3.9,88,0.12,,---,0.12,VWS V14.01,2013-10-05 08:04:00,
2013-10-05 03:09:00,49.6,46.6,30.15,NNE,23,0.0,0.0,89,0.16,,---,0.16,VWS V14.01,2013-10-05 08:09:00,
2013-10-05 03:14:00,49.6,46.6,30.15,North,353,6.2,6.2,89,0.16,,---,0.16,VWS V14.01,2013-10-05 08:14:00,
2013-10-05 03:19:00,49.6,46.9,30.15,ENE,77,0.0,0.0,90,0.16,,---,0.16,VWS V14.01,2013-10-05 08:19:00,
2013-10-05 03:24:00,49.6,47.3,30.15,ESE,120,0.0,0.0,92,0.16,,---,0.16,VWS V14.01,2013-10-05 08:24:00,
2013-10-05 03:29:00,49.6,47.6,30.15,SSE,164,3.4,3.4,93,0.20,,---,0.20,VWS V14.01,2013-10-05 08:29:00,
2013-10-05 03:34:00,49.8,48.1,30.15,West,277,3.4,3.4,94,0.16,,---,0.20,VWS V14.01,2013-10-05 08:34:00,
2013-10-05 03:39:00,49.8,48.4,30.15,South,171,3.4,3.4,95,0.16,,---,0.20,VWS V14.01,2013-10-05 08:39:00,
2013-10-05 03:44:00,49.8,48.8,30.12,SE,128,0.0,0.0,96,0.16,,---,0.20,VWS V14.01,2013-10-05 08:44:00,
2013-10-05 03:49:00,49.8,49.1,30.12,North,3,2.8,2.8,97,0.16,,---,0.20,VWS V14.01,2013-10-05 08:49:00,
2013-10-05 03:54:00,49.8,49.1,30.12,WNW,297,2.8,2.8,97,0.12,,---,0.20,VWS V14.01,2013-10-05 08:54:00,
2013-10-05 03:59:00,50.0,49.6,30.12,WSW,249,0.0,0.0,98,0.08,,---,0.20,VWS V14.01,2013-10-05 08:59:00,
2013-10-05 04:04:00,50.0,49.6,30.12,WNW,288,3.4,3.4,98,0.08,,---,0.20,VWS V14.01,2013-10-05 09:04:00,
2013-10-05 04:09:00,50.0,49.9,30.12,ENE,65,3.4,3.4,100,0.04,,---,0.20,VWS V14.01,2013-10-05 09:09:00,
2013-10-05 04:14:00,50.2,50.2,30.12,East,95,2.8,2.8,100,0.04,,---,0.20,VWS V14.01,2013-10-05 09:14:00,
2013-10-05 04:19:00,50.2,50.2,30.12,East,86,5.0,5.0,100,0.04,,---,0.20,VWS V14.01,2013-10-05 09:19:00,
2013-10-05 04:24:00,50.2,50.2,30.12,NE,54,10.1,10.1,100,0.04,,---,0.20,VWS V14.01,2013-10-05 09:24:00,
2013-10-05 04:29:00,50.2,50.2,30.12,SSW,192,2.8,2.8,100,0.00,,---,0.20,VWS V14.01,2013-10-05 09:29:00,
2013-10-05 04:34:00,50.4,50.4,30.12,WNW,303,3.4,3.4,100,0.00,,---,0.20,VWS V14.01,2013-10-05 09:34:00,
2013-10-05 04:39:00,50.4,50.4,30.12,East,87,3.9,3.9,100,0.00,,---,0.20,VWS V14.01,2013-10-05 09:39:00,
2013-10-05 04:44:00,50.5,50.5,30.12,ENE,65,3.4,3.4,100,0.00,,---,0.20,VWS V14.01,2013-10-05 09:44:00,
2013-10-05 04:49:00,50.5,50.5,30.12,SW,233,5.0,5.0,100,0.00,,---,0.20,VWS V14.01,2013-10-05 09:49:00,
2013-10-05 04:54:00,50.7,50.7,30.12,SSW,212,0.0,0.0,100,0.04,,---,0.24,VWS V14.01,2013-10-05 09:54:00,
2013-10-05 04:59:00,50.7,50.7,30.09,SSE,147,0.0,0.0,100,0.04,,---,0.24,VWS V14.01,2013-10-05 09:59:00,
2013-10-05 05:04:00,50.7,50.7,30.09,West,274,2.8,2.8,100,0.04,,---,0.24,VWS V14.01,2013-10-05 10:04:00,
2013-10-05 05:09:00,50.7,50.7,30.09,West,268,3.9,3.9,100,0.04,,---,0.24,VWS V14.01,2013-10-05 10:09:00,
2013-10-05 05:14:00,50.9,50.9,30.09,WSW,239,0.0,0.0,100,0.04,,---,0.24,VWS V14.01,2013-10-05 10:14:00,
2013-10-05 05:19:00,50.9,50.9,30.09,WSW,257,3.4,3.4,100,0.04,,---,0.24,VWS V14.01,2013-10-05 10:19:00,
2013-10-05 05:24:00,51.1,51.1,30.09,WSW,248,5.0,5.0,100,0.04,,---,0.24,VWS V14.01,2013-10-05 10:24:00,
2013-10-05 05:29:00,51.1,51.1,30.06,ESE,103,3.4,3.4,100,0.04,,---,0.24,VWS V14.01,2013-10-05 10:29:00,
2013-10-05 05:34:00,51.1,51.1,30.06,ESE,109,7.3,7.3,100,0.04,,---,0.24,VWS V14.01,2013-10-05 10:34:00,
2013-10-05 05:40:00,51.1,51.1,30.06,South,179,4.5,4.5,100,0.04,,---,0.24,VWS V14.01,2013-10-05 10:40:00,
2013-10-05 05:45:00,51.1,51.1,30.06,SW,224,6.7,6.7,100,0.04,,---,0.24,VWS V14.01,2013-10-05 10:45:00,
2013-10-05 05:50:00,51.3,51.3,30.06,SE,131,4.5,4.5,100,0.04,,---,0.24,VWS V14.01,2013-10-05 10:50:00,
2013-10-05 05:55:00,51.3,51.3,30.06,East,93,6.7,6.7,100,0.00,,---,0.24,VWS V14.01,2013-10-05 10:55:00,
2013-10-05 06:00:00,51.4,51.4,30.06,South,173,3.9,3.9,100,0.00,,---,0.24,VWS V14.01,2013-10-05 11:00:00,
2013-10-05 06:05:00,51.4,51.4,30.06,East,92,4.5,4.5,100,0.00,,---,0.24,VWS V14.01,2013-10-05 11:05:00,
2013-10-05 06:10:00,51.4,51.4,30.06,WSW,254,2.8,2.8,100,0.00,,---,0.24,VWS V14.01,2013-10-05 11:10:00,
2013-10-05 06:15:00,51.6,51.6,30.06,West,270,3.4,3.4,100,0.00,,---,0.24,VWS V14.01,2013-10-05 11:15:00,
2013-10-05 06:20:00,51.6,51.6,30.06,SSW,206,4.5,4.5,100,0.00,,---,0.24,VWS V14.01,2013-10-05 11:20:00,
2013-10-05 06:32:00,51.8,51.8,30.06,SW,235,0.0,0.0,100,0.00,,---,0.24,VWS V14.01,2013-10-05 11:32:00,
2013-10-05 06:37:00,51.8,51.8,30.06,SE,137,4.5,4.5,100,0.00,,---,0.24,VWS V14.01,2013-10-05 11:37:00,
2013-10-05 06:42:00,51.8,51.8,30.06,SE,133,3.9,3.9,100,0.00,,---,0.24,VWS V14.01,2013-10-05 11:42:00,
2013-10-05 06:47:00,52.0,52.0,30.06,SW,228,3.9,3.9,100,0.00,,---,0.24,VWS V14.01,2013-10-05 11:47:00,
2013-10-05 06:52:00,52.0,52.0,30.06,West,265,0.0,0.0,100,0.00,,---,0.24,VWS V14.01,2013-10-05 11:52:00,
2013-10-05 06:57:00,52.2,52.2,30.06,SSE,162,2.8,2.8,100,0.00,,---,0.24,VWS V14.01,2013-10-05 11:57:00,
2013-10-05 07:03:00,52.2,52.2,30.06,South,170,4.5,4.5,100,0.00,,---,0.24,VWS V14.01,2013-10-05 12:03:00,
2013-10-05 07:08:00,52.2,52.2,30.06,SSW,213,3.9,3.9,100,0.00,,---,0.24,VWS V14.01,2013-10-05 12:08:00,
2013-10-05 07:13:00,52.3,52.3,30.09,SE,140,6.2,6.2,100,0.00,,---,0.24,VWS V14.01,2013-10-05 12:13:00,
2013-10-05 07:18:00,52.3,52.3,30.09,SSW,203,10.9,10.9,100,0.00,,---,0.24,VWS V14.01,2013-10-05 12:18:00,
2013-10-05 07:23:00,52.3,52.3,30.09,SSW,207,6.2,6.2,100,0.00,,---,0.24,VWS V14.01,2013-10-05 12:23:00,
2013-10-05 07:28:00,52.5,52.5,30.09,SW,216,3.4,3.4,100,0.00,,---,0.24,VWS V14.01,2013-10-05 12:28:00,
2013-10-05 07:33:00,52.5,52.5,30.09,WSW,238,3.4,3.4,100,0.00,,---,0.24,VWS V14.01,2013-10-05 12:33:00,
2013-10-05 07:38:00,52.7,52.7,30.09,South,189,0.0,0.0,100,0.00,,---,0.24,VWS V14.01,2013-10-05 12:38:00,
2013-10-05 07:43:00,52.7,52.7,30.09,NW,320,0.0,0.0,100,0.00,,---,0.24,VWS V14.01,2013-10-05 12:43:00,
2013-10-05 07:48:00,52.7,52.7,30.09,South,184,3.9,3.9,100,0.00,,---,0.24,VWS V14.01,2013-10-05 12:48:00,
2013-10-05 07:53:00,52.9,52.9,30.09,South,181,0.0,0.0,100,0.00,,---,0.24,VWS V14.01,2013-10-05 12:53:00,
2013-10-05 07:58:00,52.9,52.9,30.09,West,261,2.8,2.8,100,0.00,,---,0.24,VWS V14.01,2013-10-05 12:58:00,
2013-10-05 08:03:00,52.9,52.9,30.09,North,0,3.4,3.4,100,0.00,,---,0.24,VWS V14.01,2013-10-05 13:03:00,
2013-10-05 08:08:00,52.9,52.9,30.09,South,191,2.8,2.8,100,0.00,,---,0.24,VWS V14.01,2013-10-05 13:08:00,
2013-10-05 08:13:00,53.1,53.1,30.06,SSE,152,3.4,3.4,100,0.00,,---,0.24,VWS V14.01,2013-10-05 13:13:00,
2013-10-05 08:18:00,53.1,53.1,30.06,SE,140,2.8,2.8,100,0.00,,---,0.24,VWS V14.01,2013-10-05 13:18:00,
2013-10-05 08:23:00,53.1,53.1,30.06,WSW,245,9.5,9.5,100,0.00,,---,0.24,VWS V14.01,2013-10-05 13:23:00,
2013-10-05 08:28:00,53.1,53.1,30.06,SW,215,0.0,0.0,100,0.00,,---,0.24,VWS V14.01,2013-10-05 13:28:00,
2013-10-05 08:33:00,53.1,53.1,30.06,SW,215,4.5,4.5,100,0.00,,---,0.24,VWS V14.01,2013-10-05 13:33:00,
2013-10-05 08:38:00,53.2,53.2,30.06,NNW,335,0.0,0.0,100,0.00,,---,0.24,VWS V14.01,2013-10-05 13:38:00,
2013-10-05 08:43:00,53.2,53.2,30.06,WSW,239,4.5,4.5,100,0.00,,---,0.24,VWS V14.01,2013-10-05 13:43:00,
2013-10-05 08:48:00,53.2,53.2,30.06,SSE,155,0.0,0.0,100,0.00,,---,0.24,VWS V14.01,2013-10-05 13:48:00,
2013-10-05 08:53:00,53.2,53.2,30.06,SSE,160,0.0,0.0,100,0.00,,---,0.24,VWS V14.01,2013-10-05 13:53:00,
2013-10-05 08:58:00,53.4,53.4,30.06,SSE,152,0.0,0.0,100,0.00,,---,0.24,VWS V14.01,2013-10-05 13:58:00,
2013-10-05 09:04:00,53.4,53.4,30.06,West,279,0.0,0.0,100,0.00,,---,0.24,VWS V14.01,2013-10-05 14:04:00,
2013-10-05 09:09:00,53.4,53.4,30.06,SSW,200,4.5,4.5,100,0.00,,---,0.24,VWS V14.01,2013-10-05 14:09:00,
2013-10-05 09:14:00,53.4,53.4,30.09,South,178,0.0,0.0,100,0.00,,---,0.24,VWS V14.01,2013-10-05 14:14:00,
2013-10-05 09:19:00,53.6,53.6,30.09,South,191,7.8,7.8,100,0.00,,---,0.24,VWS V14.01,2013-10-05 14:19:00,
2013-10-05 09:24:00,53.6,53.6,30.09,SSW,213,3.9,3.9,100,0.00,,---,0.24,VWS V14.01,2013-10-05 14:24:00,
2013-10-05 09:29:00,53.6,53.6,30.09,WSW,237,0.0,0.0,100,0.00,,---,0.24,VWS V14.01,2013-10-05 14:29:00,
2013-10-05 09:34:00,53.6,53.6,30.09,SSW,211,2.8,2.8,100,0.00,,---,0.24,VWS V14.01,2013-10-05 14:34:00,
2013-10-05 09:39:00,53.8,53.8,30.09,SSW,193,5.0,5.0,100,0.00,,---,0.24,VWS V14.01,2013-10-05 14:39:00,
2013-10-05 09:44:00,53.8,53.8,30.09,East,90,2.8,2.8,100,0.00,,---,0.24,VWS V14.01,2013-10-05 14:44:00,
2013-10-05 09:49:00,53.6,53.6,30.09,SSE,157,3.4,3.4,100,0.00,,---,0.24,VWS V14.01,2013-10-05 14:49:00,
2013-10-05 09:54:00,53.8,53.8,30.09,SW,220,6.7,6.7,100,0.00,,---,0.24,VWS V14.01,2013-10-05 14:54:00,
2013-10-05 09:59:00,53.8,53.8,30.09,SSW,196,0.0,0.0,100,0.00,,---,0.24,VWS V14.01,2013-10-05 14:59:00,
2013-10-05 10:04:00,53.8,53.8,30.09,SW,220,7.8,7.8,100,0.00,,---,0.24,VWS V14.01,2013-10-05 15:04:00,
2013-10-05 10:09:00,53.8,53.8,30.09,South,181,0.0,0.0,100,0.00,,---,0.24,VWS V14.01,2013-10-05 15:09:00,
2013-10-05 10:14:00,53.6,53.6,30.06,SW,216,3.4,3.4,100,0.00,,---,0.24,VWS V14.01,2013-10-05 15:14:00,
2013-10-05 10:19:00,53.8,53.8,30.06,SW,227,3.4,3.4,100,0.00,,---,0.24,VWS V14.01,2013-10-05 15:19:00,
2013-10-05 10:24:00,53.8,53.8,30.06,SE,143,0.0,0.0,100,0.00,,---,0.24,VWS V14.01,2013-10-05 15:24:00,
2013-10-05 10:29:00,53.8,53.8,30.09,West,276,0.0,0.0,100,0.00,,---,0.24,VWS V14.01,2013-10-05 15:29:00,
2013-10-05 10:34:00,53.8,53.8,30.09,South,180,5.0,5.0,100,0.00,,---,0.24,VWS V14.01,2013-10-05 15:34:00,
2013-10-05 10:39:00,54.0,54.0,30.09,South,187,6.2,6.2,100,0.00,,---,0.24,VWS V14.01,2013-10-05 15:39:00,
2013-10-05 10:44:00,54.0,54.0,30.09,SSW,194,0.0,0.0,100,0.00,,---,0.24,VWS V14.01,2013-10-05 15:44:00,
2013-10-05 10:49:00,54.0,54.0,30.09,South,190,4.5,4.5,100,0.00,,---,0.24,VWS V14.01,2013-10-05 15:49:00,
2013-10-05 10:54:00,54.1,54.1,30.09,South,184,0.0,0.0,100,0.00,,---,0.24,VWS V14.01,2013-10-05 15:54:00,
2013-10-05 10:59:00,54.1,54.1,30.06,SSW,202,2.8,2.8,100,0.00,,---,0.24,VWS V14.01,2013-10-05 15:59:00,
2013-10-05 11:05:00,54.3,54.3,30.06,WSW,255,3.4,3.4,100,0.00,,---,0.24,VWS V14.01,2013-10-05 16:05:00,
2013-10-05 11:10:00,54.3,54.3,30.06,West,265,0.0,0.0,100,0.00,,---,0.24,VWS V14.01,2013-10-05 16:10:00,
2013-10-05 11:15:00,54.3,54.3,30.09,WSW,249,3.4,3.4,100,0.00,,---,0.24,VWS V14.01,2013-10-05 16:15:00,
2013-10-05 11:20:00,54.5,54.5,30.09,SSW,209,0.0,0.0,100,0.00,,---,0.24,VWS V14.01,2013-10-05 16:20:00,
2013-10-05 11:25:00,54.5,54.5,30.09,SSE,149,3.4,3.4,100,0.00,,---,0.24,VWS V14.01,2013-10-05 16:25:00,
2013-10-05 11:30:00,54.5,54.5,30.06,SW,220,0.0,0.0,100,0.00,,---,0.24,VWS V14.01,2013-10-05 16:30:00,
2013-10-05 11:35:00,54.7,54.7,30.06,SW,214,0.0,0.0,100,0.00,,---,0.24,VWS V14.01,2013-10-05 16:35:00,
2013-10-05 11:40:00,54.9,54.9,30.06,WSW,237,5.0,5.0,100,0.00,,---,0.24,VWS V14.01,2013-10-05 16:40:00,
2013-10-05 11:45:00,55.0,55.0,30.06,WSW,248,2.8,2.8,100,0.00,,---,0.24,VWS V14.01,2013-10-05 16:45:00,
2013-10-05 11:50:00,55.0,55.0,30.06,South,186,6.2,6.2,100,0.00,,---,0.24,VWS V14.01,2013-10-05 16:50:00,
2013-10-05 11:55:00,55.0,55.0,30.06,SW,217,0.0,0.0,100,0.00,,---,0.24,VWS V14.01,2013-10-05 16:55:00,
2013-10-05 12:00:00,55.0,55.0,30.06,South,190,0.0,0.0,100,0.00,,---,0.24,VWS V14.01,2013-10-05 17:00:00,
2013-10-05 12:05:00,55.0,55.0,30.06,SSE,156,0.0,0.0,100,0.00,,---,0.24,VWS V14.01,2013-10-05 17:05:00,
2013-10-05 12:10:00,55.0,55.0,30.06,SSW,197,0.0,0.0,100,0.00,,---,0.24,VWS V14.01,2013-10-05 17:10:00,
2013-10-05 12:15:00,55.0,55.0,30.06,SE,125,0.0,0.0,100,0.00,,---,0.24,VWS V14.01,2013-10-05 17:15:00,
2013-10-05 12:20:00,55.0,55.0,30.06,SSE,149,3.4,3.4,100,0.00,,---,0.24,VWS V14.01,2013-10-05 17:20:00,
2013-10-05 12:25:00,55.0,55.0,30.06,SSE,152,0.0,0.0,100,0.00,,---,0.24,VWS V14.01,2013-10-05 17:25:00,
2013-10-05 12:30:00,55.0,55.0,30.06,SSE,152,2.8,2.8,100,0.00,,---,0.24,VWS V14.01,2013-10-05 17:30:00,
2013-10-05 12:35:00,55.0,55.0,30.06,West,275,0.0,0.0,100,0.00,,---,0.24,VWS V14.01,2013-10-05 17:35:00,
2013-10-05 12:40:00,55.0,55.0,30.06,SSE,162,4.5,4.5,100,0.00,,---,0.24,VWS V14.01,2013-10-05 17:40:00,
2013-10-05 12:45:00,55.0,55.0,30.06,SSE,159,0.0,0.0,100,0.00,,---,0.24,VWS V14.01,2013-10-05 17:45:00,
2013-10-05 12:50:00,55.0,55.0,30.06,SSW,212,0.0,0.0,100,0.00,,---,0.24,VWS V14.01,2013-10-05 17:50:00,
2013-10-05 12:55:00,55.0,55.0,30.06,South,175,0.0,0.0,100,0.08,,---,0.31,VWS V14.01,2013-10-05 17:55:00,
2013-10-05 13:00:00,55.0,55.0,30.06,NW,309,0.0,0.0,100,0.08,,---,0.31,VWS V14.01,2013-10-05 18:00:00,
2013-10-05 13:05:00,54.9,54.9,30.06,East,92,0.0,0.0,100,0.08,,---,0.31,VWS V14.01,2013-10-05 18:05:00,
2013-10-05 13:10:00,54.9,54.9,30.06,East,91,0.0,0.0,100,0.08,,---,0.31,VWS V14.01,2013-10-05 18:10:00,
2013-10-05 13:15:00,54.9,54.9,30.06,East,91,0.0,0.0,100,0.08,,---,0.31,VWS V14.01,2013-10-05 18:15:00,
2013-10-05 13:20:00,54.9,54.9,30.06,NNW,332,0.0,0.0,100,0.08,,---,0.31,VWS V14.01,2013-10-05 18:20:00,
2013-10-05 13:25:00,54.7,54.7,30.06,East,79,0.0,0.0,100,0.08,,---,0.31,VWS V14.01,2013-10-05 18:25:00,
2013-10-05 13:30:00,54.5,54.5,30.03,SW,220,0.0,0.0,100,0.08,,---,0.31,VWS V14.01,2013-10-05 18:30:00,
2013-10-05 13:35:00,54.5,54.5,30.03,NNE,16,0.0,0.0,100,0.08,,---,0.31,VWS V14.01,2013-10-05 18:35:00,
2013-10-05 13:40:00,54.5,54.5,30.03,NNE,16,0.0,0.0,100,0.08,,---,0.31,VWS V14.01,2013-10-05 18:40:00,
2013-10-05 13:46:00,54.3,54.3,30.03,NW,316,0.0,0.0,100,0.08,,---,0.31,VWS V14.01,2013-10-05 18:46:00,
2013-10-05 13:51:00,54.3,54.3,30.03,SW,229,0.0,0.0,100,0.08,,---,0.31,VWS V14.01,2013-10-05 18:51:00,
2013-10-05 13:56:00,54.3,54.3,30.03,WNW,293,0.0,0.0,100,0.00,,---,0.31,VWS V14.01,2013-10-05 18:56:00,
2013-10-05 14:01:00,54.3,54.3,30.03,West,259,0.0,0.0,100,0.04,,---,0.35,VWS V14.01,2013-10-05 19:01:00,
2013-10-05 14:06:00,54.3,54.3,30.03,WNW,297,0.0,0.0,100,0.04,,---,0.35,VWS V14.01,2013-10-05 19:06:00,
2013-10-05 14:11:00,54.3,54.3,30.03,SSW,206,3.4,3.4,100,0.04,,---,0.35,VWS V14.01,2013-10-05 19:11:00,
2013-10-05 14:16:00,54.5,54.5,30.03,WSW,237,0.0,0.0,100,0.04,,---,0.35,VWS V14.01,2013-10-05 19:16:00,
2013-10-05 14:21:00,54.5,54.5,30.03,SW,236,3.4,3.4,100,0.04,,---,0.35,VWS V14.01,2013-10-05 19:21:00,
2013-10-05 14:26:00,54.7,54.7,30.03,WNW,284,3.4,3.4,100,0.04,,---,0.35,VWS V14.01,2013-10-05 19:26:00,
2013-10-05 14:31:00,54.9,54.9,30.00,SW,230,5.0,5.0,100,0.04,,---,0.35,VWS V14.01,2013-10-05 19:31:00,
2013-10-05 14:36:00,55.0,55.0,30.00,NW,307,0.0,0.0,100,0.04,,---,0.35,VWS V14.01,2013-10-05 19:36:00,
2013-10-05 14:41:00,55.0,55.0,30.00,SW,220,3.4,3.4,100,0.04,,---,0.35,VWS V14.01,2013-10-05 19:41:00,
2013-10-05 14:46:00,55.0,55.0,30.03,West,268,0.0,0.0,100,0.04,,---,0.35,VWS V14.01,2013-10-05 19:46:00,
2013-10-05 14:51:00,55.0,55.0,30.03,SSE,153,2.8,2.8,100,0.04,,---,0.35,VWS V14.01,2013-10-05 19:51:00,
2013-10-05 14:56:00,55.0,55.0,30.03,WNW,298,0.0,0.0,100,0.04,,---,0.35,VWS V14.01,2013-10-05 19:56:00,
2013-10-05 15:01:00,55.0,55.0,30.00,WSW,248,2.8,2.8,100,0.00,,---,0.35,VWS V14.01,2013-10-05 20:01:00,
2013-10-05 15:06:00,54.9,54.9,30.00,West,272,0.0,0.0,100,0.00,,---,0.35,VWS V14.01,2013-10-05 20:06:00,
2013-10-05 15:11:00,54.9,54.9,30.00,SW,220,0.0,0.0,100,0.00,,---,0.35,VWS V14.01,2013-10-05 20:11:00,
2013-10-05 15:16:00,54.9,54.9,30.00,SSW,208,3.4,3.4,100,0.00,,---,0.35,VWS V14.01,2013-10-05 20:16:00,
2013-10-05 15:21:00,55.0,55.0,30.00,SSW,212,0.0,0.0,100,0.00,,---,0.35,VWS V14.01,2013-10-05 20:21:00,
2013-10-05 15:26:00,55.0,55.0,30.00,WSW,237,2.8,2.8,100,0.00,,---,0.35,VWS V14.01,2013-10-05 20:26:00,
2013-10-05 15:31:00,54.9,54.9,30.00,SSW,203,0.0,0.0,100,0.00,,---,0.35,VWS V14.01,2013-10-05 20:31:00,
2013-10-05 15:36:00,54.9,54.9,30.00,South,176,4.5,4.5,100,0.00,,---,0.35,VWS V14.01,2013-10-05 20:36:00,
2013-10-05 15:41:00,54.9,54.9,30.00,South,191,6.7,6.7,100,0.00,,---,0.35,VWS V14.01,2013-10-05 20:41:00,
2013-10-05 15:46:00,54.9,54.9,30.00,SSE,166,0.0,0.0,100,0.00,,---,0.35,VWS V14.01,2013-10-05 20:46:00,
2013-10-05 15:51:00,54.9,54.9,30.00,SSW,212,2.8,2.8,100,0.00,,---,0.35,VWS V14.01,2013-10-05 20:51:00,
2013-10-05 15:56:00,54.7,54.7,30.00,South,186,0.0,0.0,100,0.04,,---,0.39,VWS V14.01,2013-10-05 20:56:00,
2013-10-05 16:01:00,54.7,54.7,29.97,ESE,113,0.0,0.0,100,0.04,,---,0.39,VWS V14.01,2013-10-05 21:01:00,
2013-10-05 16:06:00,54.9,54.9,29.97,WSW,253,0.0,0.0,100,0.04,,---,0.39,VWS V14.01,2013-10-05 21:06:00,
2013-10-05 16:11:00,54.7,54.7,29.97,NW,326,0.0,0.0,100,0.04,,---,0.39,VWS V14.01,2013-10-05 21:11:00,
2013-10-05 16:16:00,54.7,54.7,29.97,NW,326,0.0,0.0,100,0.04,,---,0.39,VWS V14.01,2013-10-05 21:16:00,
2013-10-05 16:22:00,54.7,54.7,29.97,WSW,245,0.0,0.0,100,0.04,,---,0.39,VWS V14.01,2013-10-05 21:22:00,
2013-10-05 16:27:00,54.7,54.7,29.97,NNW,327,0.0,0.0,100,0.04,,---,0.39,VWS V14.01,2013-10-05 21:27:00,
2013-10-05 16:32:00,54.9,54.9,29.97,ESE,111,0.0,0.0,100,0.04,,---,0.39,VWS V14.01,2013-10-05 21:32:00,
2013-10-05 16:37:00,55.0,55.0,29.97,SSW,205,5.0,5.0,100,0.04,,---,0.39,VWS V14.01,2013-10-05 21:37:00,
2013-10-05 16:42:00,55.2,55.2,29.97,SSE,150,5.0,5.0,100,0.04,,---,0.39,VWS V14.01,2013-10-05 21:42:00,
2013-10-05 16:47:00,55.2,55.2,29.97,SW,214,0.0,0.0,100,0.04,,---,0.39,VWS V14.01,2013-10-05 21:47:00,
2013-10-05 16:52:00,55.2,55.2,29.97,WSW,244,3.9,3.9,100,0.04,,---,0.39,VWS V14.01,2013-10-05 21:52:00,
2013-10-05 16:57:00,55.2,55.2,29.97,SSW,203,0.0,0.0,100,0.00,,---,0.39,VWS V14.01,2013-10-05 21:57:00,
2013-10-05 17:02:00,55.2,55.2,29.97,NE,34,0.0,0.0,100,0.00,,---,0.39,VWS V14.01,2013-10-05 22:02:00,
2013-10-05 17:07:00,55.2,55.2,29.97,SSW,193,0.0,0.0,100,0.00,,---,0.39,VWS V14.01,2013-10-05 22:07:00,
2013-10-05 17:12:00,55.2,55.2,29.94,East,87,0.0,0.0,100,0.00,,---,0.39,VWS V14.01,2013-10-05 22:12:00,
2013-10-05 17:17:00,55.2,55.2,29.94,SW,227,7.8,7.8,100,0.00,,---,0.39,VWS V14.01,2013-10-05 22:17:00,
2013-10-05 17:22:00,55.2,55.2,29.94,SSW,213,2.8,2.8,100,0.00,,---,0.39,VWS V14.01,2013-10-05 22:22:00,
2013-10-05 17:27:00,55.2,55.2,29.94,NE,46,3.4,3.4,100,0.00,,---,0.39,VWS V14.01,2013-10-05 22:27:00,
2013-10-05 17:32:00,55.2,55.2,29.94,WSW,251,0.0,0.0,100,0.00,,---,0.39,VWS V14.01,2013-10-05 22:32:00,
2013-10-05 17:37:00,55.2,55.2,29.94,South,180,3.9,3.9,100,0.00,,---,0.39,VWS V14.01,2013-10-05 22:37:00,
2013-10-05 17:42:00,55.0,55.0,29.97,West,265,3.4,3.4,100,0.00,,---,0.39,VWS V14.01,2013-10-05 22:42:00,
2013-10-05 17:47:00,55.0,55.0,29.97,ESE,117,2.8,2.8,100,0.00,,---,0.39,VWS V14.01,2013-10-05 22:47:00,
2013-10-05 17:52:00,55.0,55.0,29.97,South,172,0.0,0.0,100,0.00,,---,0.39,VWS V14.01,2013-10-05 22:52:00,
2013-10-05 17:57:00,55.0,55.0,29.94,WSW,248,0.0,0.0,100,0.00,,---,0.39,VWS V14.01,2013-10-05 22:57:00,
2013-10-05 18:02:00,54.9,54.9,29.94,SSW,206,3.4,3.4,100,0.00,,---,0.39,VWS V14.01,2013-10-05 23:02:00,
2013-10-05 18:07:00,54.9,54.9,29.94,SE,138,0.0,0.0,100,0.00,,---,0.39,VWS V14.01,2013-10-05 23:07:00,
2013-10-05 18:12:00,54.9,54.9,29.94,SSE,164,2.8,2.8,100,0.00,,---,0.39,VWS V14.01,2013-10-05 23:12:00,
2013-10-05 18:17:00,54.7,54.7,29.94,SSW,194,0.0,0.0,100,0.00,,---,0.39,VWS V14.01,2013-10-05 23:17:00,
2013-10-05 18:22:00,54.7,54.7,29.94,South,169,0.0,0.0,100,0.00,,---,0.39,VWS V14.01,2013-10-05 23:22:00,
2013-10-05 18:27:00,54.5,54.5,29.94,SW,217,0.0,0.0,100,0.00,,---,0.39,VWS V14.01,2013-10-05 23:27:00,
2013-10-05 18:33:00,54.5,54.5,29.94,SW,222,0.0,0.0,100,0.00,,---,0.39,VWS V14.01,2013-10-05 23:33:00,
2013-10-05 18:38:00,54.3,54.3,29.94,South,187,0.0,0.0,100,0.00,,---,0.39,VWS V14.01,2013-10-05 23:38:00,
2013-10-05 18:43:00,54.3,54.3,29.94,SW,236,0.0,0.0,100,0.00,,---,0.39,VWS V14.01,2013-10-05 23:43:00,
2013-10-05 18:48:00,54.3,54.3,29.94,ESE,117,0.0,0.0,100,0.00,,---,0.39,VWS V14.01,2013-10-05 23:48:00,
2013-10-05 18:53:00,54.3,54.3,29.94,WNW,287,0.0,0.0,100,0.00,,---,0.39,VWS V14.01,2013-10-05 23:53:00,
2013-10-05 18:58:00,54.1,54.1,29.94,SSW,202,3.4,3.4,100,0.04,,---,0.43,VWS V14.01,2013-10-05 23:58:00,
2013-10-05 19:03:00,54.1,54.1,29.94,SE,140,6.2,6.2,100,0.04,,---,0.43,VWS V14.01,2013-10-06 00:03:00,
2013-10-05 19:08:00,54.1,54.1,29.94,ENE,70,0.0,0.0,100,0.04,,---,0.43,VWS V14.01,2013-10-06 00:08:00,
2013-10-05 19:13:00,54.1,54.1,29.94,South,171,4.5,4.5,100,0.04,,---,0.43,VWS V14.01,2013-10-06 00:13:00,
2013-10-05 19:18:00,54.1,54.1,29.94,SSE,163,4.5,4.5,100,0.04,,---,0.43,VWS V14.01,2013-10-06 00:18:00,
2013-10-05 19:23:00,54.0,54.0,29.94,South,186,3.9,3.9,100,0.04,,---,0.43,VWS V14.01,2013-10-06 00:23:00,
2013-10-05 19:28:00,54.0,54.0,29.91,West,260,6.7,6.7,100,0.04,,---,0.43,VWS V14.01,2013-10-06 00:28:00,
2013-10-05 19:33:00,54.0,54.0,29.91,SSE,164,3.9,3.9,100,0.04,,---,0.43,VWS V14.01,2013-10-06 00:33:00,
2013-10-05 19:38:00,54.0,54.0,29.91,West,274,2.8,2.8,100,0.04,,---,0.43,VWS V14.01,2013-10-06 00:38:00,
2013-10-05 19:43:00,53.8,53.8,29.91,WSW,237,3.4,3.4,100,0.04,,---,0.43,VWS V14.01,2013-10-06 00:43:00,
2013-10-05 19:48:00,53.8,53.8,29.91,SE,127,0.0,0.0,100,0.04,,---,0.43,VWS V14.01,2013-10-06 00:48:00,
2013-10-05 19:53:00,53.8,53.8,29.91,WSW,239,0.0,0.0,100,0.04,,---,0.43,VWS V14.01,2013-10-06 00:53:00,
2013-10-05 19:58:00,53.6,53.6,29.91,SSW,203,3.4,3.4,100,0.00,,---,0.43,VWS V14.01,2013-10-06 00:58:00,
2013-10-05 20:03:00,53.6,53.6,29.91,SW,233,4.5,4.5,100,0.00,,---,0.43,VWS V14.01,2013-10-06 01:03:00,
2013-10-05 20:08:00,53.6,53.6,29.91,South,184,3.9,3.9,100,0.00,,---,0.43,VWS V14.01,2013-10-06 01:08:00,
2013-10-05 20:13:00,53.6,53.6,29.91,SW,224,3.4,3.4,100,0.00,,---,0.43,VWS V14.01,2013-10-06 01:13:00,
2013-10-05 20:18:00,53.4,53.4,29.91,ESE,122,2.8,2.8,100,0.00,,---,0.43,VWS V14.01,2013-10-06 01:18:00,
2013-10-05 20:23:00,53.4,53.4,29.91,SSW,199,6.2,6.2,100,0.00,,---,0.43,VWS V14.01,2013-10-06 01:23:00,
2013-10-05 20:28:00,53.4,53.4,29.91,SW,233,0.0,0.0,100,0.00,,---,0.43,VWS V14.01,2013-10-06 01:28:00,
2013-10-05 20:33:00,53.2,53.2,29.91,SSE,165,4.5,4.5,100,0.00,,---,0.43,VWS V14.01,2013-10-06 01:33:00,
2013-10-05 20:39:00,53.2,53.2,29.91,SW,234,0.0,0.0,100,0.00,,---,0.43,VWS V14.01,2013-10-06 01:39:00,
2013-10-05 20:44:00,53.2,53.2,29.91,South,178,0.0,0.0,100,0.00,,---,0.43,VWS V14.01,2013-10-06 01:44:00,
2013-10-05 20:49:00,53.2,53.2,29.91,SSW,213,7.8,7.8,100,0.00,,---,0.43,VWS V14.01,2013-10-06 01:49:00,
2013-10-05 20:54:00,53.1,53.1,29.91,SSW,213,0.0,0.0,100,0.00,,---,0.43,VWS V14.01,2013-10-06 01:54:00,
2013-10-05 20:59:00,53.1,53.1,29.88,WSW,245,3.4,3.4,100,0.00,,---,0.43,VWS V14.01,2013-10-06 01:59:00,
2013-10-05 21:04:00,53.2,53.2,29.88,SSW,211,6.2,6.2,100,0.00,,---,0.43,VWS V14.01,2013-10-06 02:04:00,
2013-10-05 21:09:00,53.2,53.2,29.88,South,177,0.0,0.0,100,0.00,,---,0.43,VWS V14.01,2013-10-06 02:09:00,
2013-10-05 21:14:00,53.2,53.2,29.88,SSE,159,3.9,3.9,100,0.00,,---,0.43,VWS V14.01,2013-10-06 02:14:00,
2013-10-05 21:19:00,53.2,53.2,29.88,WSW,241,5.0,5.0,100,0.00,,---,0.43,VWS V14.01,2013-10-06 02:19:00,
2013-10-05 21:24:00,53.2,53.2,29.88,SSW,195,4.5,4.5,100,0.00,,---,0.43,VWS V14.01,2013-10-06 02:24:00,
2013-10-05 21:29:00,53.4,53.4,29.88,South,180,0.0,0.0,100,0.00,,---,0.43,VWS V14.01,2013-10-06 02:29:00,
2013-10-05 21:34:00,53.4,53.4,29.88,WSW,237,3.4,3.4,100,0.00,,---,0.43,VWS V14.01,2013-10-06 02:34:00,
2013-10-05 21:39:00,53.4,53.4,29.88,SW,233,4.5,4.5,100,0.00,,---,0.43,VWS V14.01,2013-10-06 02:39:00,
2013-10-05 21:44:00,53.4,53.4,29.88,WNW,303,3.4,3.4,100,0.00,,---,0.43,VWS V14.01,2013-10-06 02:44:00,
2013-10-05 21:49:00,53.4,53.4,29.88,SW,226,3.9,3.9,100,0.00,,---,0.43,VWS V14.01,2013-10-06 02:49:00,
2013-10-05 21:54:00,53.4,53.4,29.88,WSW,250,0.0,0.0,100,0.00,,---,0.43,VWS V14.01,2013-10-06 02:54:00,
2013-10-05 21:59:00,53.2,53.2,29.88,SSW,192,3.4,3.4,100,0.00,,---,0.43,VWS V14.01,2013-10-06 02:59:00,
2013-10-05 22:04:00,53.2,53.2,29.88,WSW,243,2.8,2.8,100,0.00,,---,0.43,VWS V14.01,2013-10-06 03:04:00,
2013-10-05 22:09:00,53.2,53.2,29.88,North,353,0.0,0.0,100,0.00,,---,0.43,VWS V14.01,2013-10-06 03:09:00,
2013-10-05 22:14:00,53.2,53.2,29.88,South,169,0.0,0.0,100,0.00,,---,0.43,VWS V14.01,2013-10-06 03:14:00,
2013-10-05 22:19:00,53.2,53.2,29.88,West,271,3.4,3.4,100,0.04,,---,0.47,VWS V14.01,2013-10-06 03:19:00,
2013-10-05 22:24:00,53.2,53.2,29.88,SW,214,3.9,3.9,100,0.04,,---,0.47,VWS V14.01,2013-10-06 03:24:00,
2013-10-05 22:29:00,53.2,53.2,29.88,NW,306,3.9,3.9,100,0.04,,---,0.47,VWS V14.01,2013-10-06 03:29:00,
2013-10-05 22:34:00,53.2,53.2,29.88,NW,306,0.0,0.0,100,0.04,,---,0.47,VWS V14.01,2013-10-06 03:34:00,
2013-10-05 22:39:00,53.2,53.2,29.88,WSW,240,0.0,0.0,100,0.04,,---,0.47,VWS V14.01,2013-10-06 03:39:00,
2013-10-05 22:44:00,53.2,53.2,29.88,SW,214,0.0,0.0,100,0.04,,---,0.47,VWS V14.01,2013-10-06 03:44:00,
2013-10-05 22:49:00,53.2,53.2,29.88,NE,47,0.0,0.0,100,0.08,,---,0.51,VWS V14.01,2013-10-06 03:49:00,
2013-10-05 22:54:00,53.1,53.1,29.88,SE,137,0.0,0.0,100,0.20,,---,0.63,VWS V14.01,2013-10-06 03:54:00,
2013-10-05 22:59:00,53.1,53.1,29.85,North,8,0.0,0.0,100,0.20,,---,0.63,VWS V14.01,2013-10-06 03:59:00,
2013-10-05 23:01:00,53.1,53.1,29.85,North,8,0.0,0.0,100,0.20,,---,0.63,VWS V14.01,2013-10-06 04:01:00,
2013-10-05 23:02:00,53.1,53.1,29.85,North,8,0.0,0.0,100,0.20,,---,0.63,VWS V14.01,2013-10-06 04:02:00,
2013-10-05 23:07:00,52.9,52.9,29.85,North,8,0.0,0.0,100,0.24,,---,0.67,VWS V14.01,2013-10-06 04:07:00,
2013-10-05 23:12:00,52.9,52.9,29.85,North,8,0.0,0.0,100,0.28,,---,0.71,VWS V14.01,2013-10-06 04:12:00,
2013-10-05 23:17:00,52.7,52.7,29.85,North,8,0.0,0.0,100,0.31,,---,0.75,VWS V14.01,2013-10-06 04:17:00,
2013-10-05 23:22:00,52.7,52.7,29.85,WNW,297,2.8,2.8,100,0.28,,---,0.75,VWS V14.01,2013-10-06 04:22:00,
2013-10-05 23:27:00,52.7,52.7,29.85,NW,322,0.0,0.0,100,0.31,,---,0.79,VWS V14.01,2013-10-06 04:27:00,
2013-10-05 23:32:00,52.7,52.7,29.85,NW,322,0.0,0.0,100,0.31,,---,0.79,VWS V14.01,2013-10-06 04:32:00,
2013-10-05 23:37:00,52.5,52.5,29.85,NW,322,0.0,0.0,100,0.35,,---,0.83,VWS V14.01,2013-10-06 04:37:00,
2013-10-05 23:42:00,52.5,52.5,29.85,NW,323,0.0,0.0,100,0.35,,---,0.83,VWS V14.01,2013-10-06 04:42:00,
2013-10-05 23:47:00,52.5,52.5,29.85,NW,322,0.0,0.0,100,0.35,,---,0.83,VWS V14.01,2013-10-06 04:47:00,
2013-10-05 23:52:00,52.5,52.5,29.85,NW,322,0.0,0.0,100,0.24,,---,0.83,VWS V14.01,2013-10-06 04:52:00,
2013-10-05 23:57:00,52.5,52.5,29.85,NW,322,0.0,0.0,100,0.20,,---,0.83,VWS V14.01,2013-10-06 04:57:00,